Regional Weather Roundup
Issued by NWS

Home | Current Version | Previous Version | Text Only | Print | Product List | Glossary Off
Versions: 1 2 3 4 5 6 7 8 9 10 11 12 13 14 15 16 17 18 19 20 21 22 23 24 25 26 27 28 29 30 31 32 33 34 35 36 37 38 39 40 41 42 43 44 45 46 47 48 49 50

000
ASUS43 KOAX 160502
RWRNE

WEATHER ROUNDUP FOR NEBRASKA
NATIONAL WEATHER SERVICE OMAHA NE
1200 AM CDT WED APR 16 2014

NOTES: SATELLITE DATA IS BEING USED TO AUGMENT CLOUD COVER ABOVE
       12000 FEET.
       "FAIR" INDICATES FEW OR NO CLOUDS BELOW 12,000 FEET WITH NO
       SIGNIFICANT WEATHER AND/OR OBSTRUCTIONS TO VISIBILITY.

  * THESE STATIONS DO NOT REPORT WEATHER SUCH AS RAIN...SNOW OR FOG.

NEZ001>004-019>022-054>056-160600-
NEBRASKA PANHANDLE

CITY           SKY/WX    TMP DP  RH WIND       PRES   REMARKS
SCOTTSBLUFF    CLOUDY    58  26  29 W14       29.59F
ALLIANCE       CLOUDY    60  24  25 SW21G32   29.56F
CHADRON        CLOUDY    56  32  40 NW8       29.53F
KIMBALL        CLOUDY    46  28  50 SW10      29.64S
SIDNEY         CLOUDY    46  32  58 SW12      29.63F
$$

NEZ057>060-069>072-079>082-160600-
SOUTHWEST NEBRASKA

CITY           SKY/WX    TMP DP  RH WIND       PRES   REMARKS
NORTH PLATTE   PTCLDY    50  25  37 S16G24    29.61F
IMPERIAL       PTCLDY    49  27  42 S15       29.64F
LEXINGTON      PTCLDY    51  29  42 S20G26    29.66F
MCCOOK         PTCLDY    50  29  44 S17       29.67F
OGALLALA       MOCLDY    48  26  42 S13G20    29.61F
$$

NEZ005>010-023>029-035>040-094-160600-
NORTH CENTRAL NEBRASKA

CITY           SKY/WX    TMP DP  RH WIND       PRES   REMARKS
VALENTINE      CLOUDY    53  26  35 SW7       29.52F
AINSWORTH      CLOUDY    50  28  43 S13       29.54F
BROKEN BOW     MOCLDY    50  28  42 S14       29.63F
O`NEILL        MOCLDY    50  28  41 SE9       29.61F
ORD            MOCLDY    50  29  44 S16G23    29.64F
THEDFORD       CLOUDY    56  22  27 S12       29.57F
$$

NEZ041-046>049-061>064-073>077-083>087-160600-
SOUTH CENTRAL NEBRASKA

CITY           SKY/WX    TMP DP  RH WIND       PRES   REMARKS
GRAND ISLAND   PTCLDY    51  26  37 S21       29.71F
AURORA         PTCLDY    50  26  39 S16       29.73F
HASTINGS       PTCLDY    51  23  33 S14G24    29.73F
HEBRON         PTCLDY    51  18  26 S20G25    29.80F
HOLDREGE       MOCLDY    49  29  47 S18G24    29.70F
KEARNEY *      MOCLDY    50  27  40 S22G32    29.69F
YORK           PTCLDY    48  25  40 S20       29.75F
$$

NEZ011>018-030>034-042>045-160600-
NORTHEAST NEBRASKA

CITY           SKY/WX    TMP DP  RH WIND       PRES   REMARKS
NORFOLK        MOCLDY    47  26  44 S18G25    29.70F
ALBION         MOCLDY    49  27  43 S17       29.68F
BLAIR          PTCLDY    47  29  49 S22G32    29.81F
COLUMBUS *     PTCLDY    46  27  46 S17G23    29.74F
FREMONT        PTCLDY    48  28  46 SE23G30   29.78F
TEKAMAH        PTCLDY    44  30  57 SE20      29.80F
$$

NEZ050>053-065>068-078-088>093-160600-
SOUTHEAST NEBRASKA

CITY           SKY/WX    TMP DP  RH WIND       PRES   REMARKS
LINCOLN        PTCLDY    51  24  34 S20       29.80F
OMAHA EPPLEY   CLOUDY    46  30  53 S20       29.84F
BEATRICE       PTCLDY    50  22  33 S16G24    29.84F
FALLS CITY     PTCLDY    47  30  51 S18G25    29.91F
NEBRASKA CITY  PTCLDY    46  31  56 S21       29.87F
PLATTSMOUTH    PTCLDY    47  29  50 SE17G25   29.85F
$$

NEZ044-045-051>053-067-160600-
OMAHA AREA

CITY           SKY/WX    TMP DP  RH WIND       PRES   REMARKS
OMAHA EPPLEY   CLOUDY    46  30  53 S20       29.84F
BLAIR          PTCLDY    47  29  49 S22G32    29.81F
FREMONT        PTCLDY    48  28  46 SE23G30   29.78F
MILLARD        PTCLDY    47  30  51 SE13G20   29.84F
OFFUTT AFB     PTCLDY    48  31  52 SE22      29.85F
PLATTSMOUTH    PTCLDY    47  29  50 SE17G25   29.85F
WAHOO          FAIR      44  30  58 SE16      29.80F
$$



USA.gov is the U.S. government's official web portal to all federal, state and local government web resources and services.